Regional Weather Roundup
Issued by NWS New Orleans/Baton Rouge, LA

Home | Current Version | Previous Version | Text Only | Print | Product List | Glossary On
Versions: 1 2 3 4 5 6 7 8 9 10 11 12 13 14 15 16 17 18 19 20 21 22 23 24 25 26 27 28 29 30 31 32 33 34 35 36 37 38 39 40 41 42 43 44 45 46 47 48 49 50
763
ASUS44 KLIX 191205
RWRLIX
NEW ORLEANS REGIONAL WEATHER ROUNDUP
NATIONAL WEATHER SERVICE NEW ORLEANS LA
700 AM CDT SAT APR 19 2014

NOTE: "FAIR" INDICATES FEW OR NO CLOUDS BELOW 12,000 FEET WITH NO
      SIGNIFICANT WEATHER AND/OR OBSTRUCTIONS TO VISIBILITY.
      SKY/WX - SKY CONDITION AND SIGNIFICANT WEATHER.
      TMP - AIR TEMPERATURE.     DP    - DEWPOINT TEMPERATURE.
      RH  - RELATIVE HUMIDITY.   PRES  - PRESSURE.
      HI  - HEAT INDEX.          WCI   - WIND CHILL INDEX.

*  THESE STATIONS ARE NOT NWS OR FAA STATIONS AND ARE NOT UNDER
   NWS QUALITY CONTROL.

LAZ038-040-048-061>063-065>067-069-191300-
SOUTHEAST LOUISIANA

CITY           SKY/WX    TMP DP  RH WIND       PRES   REMARKS
N.O. AUDUBON     N/A     55  54  95 MISG        N/A
6HR MIN TEMP:  55; 6HR MAX TEMP:  62;

N.O. INTL ARPT PTCLDY    57  52  83 N5        30.15R
6HR MIN TEMP:  55; 6HR MAX TEMP:  61;

N.O. LAKEFRONT CLEAR     59  53  80 N10       30.15R
6HR MIN TEMP:  58; 6HR MAX TEMP:  61;

N.O. DOWNTOWN*   N/A     57  48  72 CALM      30.15R
6HR MIN TEMP:  57; 6HR MAX TEMP:  61;

SLIDELL        CLEAR     53  50  89 N3        30.14R
6HR MIN TEMP:  52; 6HR MAX TEMP:  56;

BATON ROUGE    CLEAR     52  49  89 CALM      30.16S
6HR MIN TEMP:  52; 6HR MAX TEMP:  60;

BOOTHVILLE     CLOUDY    60  55  83 N8        30.14R
6HR MIN TEMP:  58; 6HR MAX TEMP:  62;

BELLE CHASSE   PTCLDY    51  49  92 CALM      30.14R FOG
6HR MIN TEMP:  51; 6HR MAX TEMP:  60;

BOGALUSA*        N/A     52  49  90 CALM      30.16R
6HR MIN TEMP:  51; 6HR MAX TEMP:  55;

GALLIANO*      SUNNY     54  51  92 CALM      30.15R
6HR MIN TEMP:  54; 6HR MAX TEMP:  62;

NEW ROADS*       N/A     52  52  98 CALM      30.17S FOG
6HR MIN TEMP:  52; 6HR MAX TEMP:  60;

GONZALES*        N/A     51  51 100 CALM      30.16R FOG
6HR MIN TEMP:  51; 6HR MAX TEMP:  61;

HAMMOND*       CLEAR     52  48  87 CALM      30.18R
HOUMA*         CLEAR     54  52  94 NW5       30.15R
PORT FOURCHON* SUNNY     59  55  88 N6        30.15S

$$

MSZ070-080>082-191300-
SOUTHERN MISSISSIPPI

CITY           SKY/WX    TMP DP  RH WIND       PRES   REMARKS
MCCOMB         CLEAR     50  48  93 NW3       30.17R
6HR MIN TEMP:  50; 6HR MAX TEMP:  58;

GULFPORT       CLEAR     56  51  84 N8        30.12R
6HR MIN TEMP:  56; 6HR MAX TEMP:  60;

BILOXI         NOT AVBL
PASCAGOULA     CLEAR     54  52  93 N9        30.09R
6HR MIN TEMP:  53; 6HR MAX TEMP:  57; 6HR PCP:  0.01;


$$

COASTAL OBSERVATIONS
LAKE AND NEARSHORE STATIONS

STATION/POSITION TIME  TEMP    WIND        PRES    WAVE
                       AIR SEA DIR/SP/G            HT/PER
                 (UTC) (F)     (DEG/KT/KT) (MB)    (FT/S)
PASCAGOULA       1200   55      20/ 11/ 15 1018.2
WAVELAND YACHT   1200   54 64  310/  6/  9 1019.4
GRAND ISLE       1200   59 66  350/  5/  9 1020.8
SOUTHWEST PASS   1200   60 58  350/ 11/ 13 1020.4
NEW CANAL        1200   60 64   10/  7/ 10 1021.2
SHELL BEACH      1200   59 61  360/ 11/ 13 1020.1

OFFSHORE STATIONS

STATION/POSITION TIME  TEMP    WIND        PRES    WAVE
                       AIR SEA DIR/SP/G            HT/PER
                 (UTC) (F)     (DEG/KT/KT) (MB)    (FT/S)
64 S DAUPHIN ISL 1102   61 70   30/ 19/ 25 1018.3

$$




USA.gov is the U.S. government's official web portal to all federal, state and local government web resources and services.